This is the latest recevied weather packets stored in our database for station/object K6CEG. If no packets are shown the sender has not sent any weather packets the latest 10 day(s).
| Time | Temp. | Humidity | Pressure | Rain* | Wind** | Luminosity | Snow |
|---|---|---|---|---|---|---|---|
| 1788475793 | 27.78° C | 49% | 1013.9 hPa | 0 mm | - | 43 W/m² | - |
| 1788475489 | 27.78° C | 49% | 1013.9 hPa | 0 mm | - | 42 W/m² | - |
| 1788475185 | 27.78° C | 49% | 1014 hPa | 0 mm | - | 78 W/m² | - |
| 1788474884 | 27.22° C | 50% | 1013.9 hPa | 0 mm | - | 254 W/m² | - |
| 1788474583 | 27.78° C | 49% | 1013.9 hPa | 0 mm | - | 231 W/m² | - |
| 1788474278 | 27.78° C | 49% | 1014.1 hPa | 0 mm | - | 46 W/m² | - |
| 1788473977 | 27.78° C | 48% | 1014.3 hPa | 0 mm | - | 47 W/m² | - |
| 1788473672 | 27.78° C | 50% | 1014.5 hPa | 0 mm | - | 48 W/m² | - |
| 1788473370 | 27.78° C | 50% | 1014.3 hPa | 0 mm | - | 51 W/m² | - |
| 1788473070 | 27.78° C | 50% | 1014.1 hPa | 0 mm | - | 428 W/m² | - |
| 1788472767 | 27.22° C | 50% | 1014.6 hPa | 0 mm | - | 55 W/m² | - |
| 1788472464 | 27.78° C | 50% | 1014.5 hPa | 0 mm | - | 58 W/m² | - |
| 1788472162 | 27.78° C | 49% | 1014.2 hPa | 0 mm | - | 68 W/m² | - |
| 1788471858 | 27.78° C | 49% | 1014.4 hPa | 0 mm | - | 144 W/m² | - |
| 1788471558 | 28.33° C | 48% | 1014.3 hPa | 0 mm | - | 452 W/m² | - |
| 1788471254 | 28.33° C | 49% | 1014.3 hPa | 0 mm | - | 413 W/m² | - |
| 1788470949 | 28.33° C | 48% | 1014.3 hPa | 0 mm | - | 553 W/m² | - |
| 1788470645 | 27.78° C | 49% | 1014.3 hPa | 0 mm | - | 326 W/m² | - |
| 1788470345 | 28.33° C | 47% | 1014.3 hPa | 0 mm | - | 393 W/m² | - |
| 1788470041 | 28.33° C | 48% | 1014.3 hPa | 0 mm | - | 258 W/m² | - |
| 1788469737 | 27.78° C | 49% | 1014.6 hPa | 0 mm | - | 528 W/m² | - |
| 1788469436 | 28.33° C | 47% | 1014.5 hPa | 0 mm | - | 557 W/m² | - |
| 1788469137 | 28.33° C | 48% | 1014.6 hPa | 0 mm | - | 596 W/m² | - |
| 1788468836 | 28.33° C | 47% | 1014.7 hPa | 0 mm | - | 413 W/m² | - |
| 1788468531 | 29.44° C | 46% | 1014.7 hPa | 0 mm | - | 450 W/m² | - |
* Rain latest hour (hover to see other rain measurements)
** Current wind speed in m/s (hover to see current wind gust speed)